Location: Canazei
(46.4667°N, 11.7667°E)
Time: 05:16:49
(UTC+00:00)

Meteor 1-18 Rocket - Pass Details

Date: 21 April 2021
Orbit: 836 x 910 km, 81.2° (Epoch: 15 May)

Event Time Altitude Azimuth Distance (km) Brightness Sun altitude
Exits shadow 01:09:56 70° 204° (SSW) 945 4.1 -25.9°
Maximum altitude 01:10:39 85° 280° (W) 897 4.2 -25.8°
Drops below altitude 10° 01:16:27 10° 10° (N) 2,537 7.5 -25.3°
Sets 01:18:53 0° 11° (NNE) 3,468 8.5 -25.1°
